STARLINK-32884 (62953 NORAD) Tracking and Keplerian Element Data

This shows tracking and keplerian element data for the satellite.

Feedback or suggestion? Click here.




ElementValue
Catalog62953
NameSTARLINK-32884
Epoch Orbit4914
Epoch Day353.90184016
Epoch Year2025
RAAN240.8007
Inclination53.1591
Eccentricity0.000144
Argument of Perigee96.8962
Mean Anonmoly263.2202
Mean Motion15.30200141
Decay Rate0.00014274
L11 62953U 25029F 25353.90184016 .00014274 00000+0 49313-3 0 9990
L22 62953 53.1591 240.8007 0001440 96.8962 263.2202 15.30200141 49143



Live tracking and technical data element details for STARLINK-32884 (NORAD 62953). STARLINK-32884 can be tracked NOW for your location showing map with azimuth and elevation plus other details from your city location.







IsCatalogInMostPopularTable: catalog: 62953, numindb: 2
Update: records affected: 1



GetName: 62953 STARLINK-32884

Hit Count: updated at: Sat, 07 Feb 2026 08:37:00 GMT